Location: Bishop�s Knoyle
(51.0728°N, 2.1714°W)
Time: 14:29:13
(UTC+00:00)

NOSS 3-4 (C) - Pass Details

Date: 23 January 2021
Orbit: 878 x 1335 km, 63.4° (Epoch: 16 February)

Event Time Altitude Azimuth Distance (km) Brightness Sun altitude
Rises 21:14:02 0° 309° (NW) 3,688 7.3 -41.6°
Reaches altitude 10° 21:16:41 10° 317° (NW) 2,798 6.4 -41.9°
Enters shadow 21:19:24 24° 332° (NNW) 2,003 5.4 -42.3°
